Location: Dillon
(41.1766°N, 107.0923°W)
Time: 08:49:27
(UTC+00:00)

SO-50 - Visible Passes

Search period start: 04 July 2022 00:00
Search period end: 14 July 2022 00:00
Orbit: 586 x 697 km, 64.6° (Epoch: 03 July)

Date Brightness Start Highest point End Pass type
(mag) Time Alt. Az. Time Alt. Az. Time Alt. Az.
04 Jul ? 06:24:43 59° ENE 06:24:43 59° ENE 06:28:53 10° NE visible
04 Jul ? 08:02:15 13° W 08:05:00 19° NW 08:08:32 10° N visible
05 Jul ? 05:10:20 15° E 05:10:20 15° E 05:11:52 10° ENE visible
05 Jul ? 06:47:52 48° W 06:48:36 54° NW 06:53:21 10° NNE visible
05 Jul ? 08:28:51 10° NW 08:30:10 11° NNW 08:31:28 10° NNW visible
06 Jul ? 05:33:23 41° E 05:33:23 41° E 05:37:19 10° NE visible
06 Jul ? 07:10:55 18° W 07:13:22 26° NW 07:17:27 10° NNE visible
07 Jul ? 04:18:45 11° E 04:18:45 11° E 04:19:08 10° E visible
07 Jul ? 05:56:16 59° SW 05:57:08 80° WNW 06:02:00 10° NNE visible
07 Jul ? 07:35:46 10° WNW 07:38:23 14° NW 07:41:03 10° N visible
08 Jul ? 04:41:26 29° ESE 04:41:29 29° ESE 04:45:35 10° NE visible
08 Jul ? 06:18:55 19° WSW 06:21:47 36° NW 06:26:16 10° NNE visible
09 Jul ? 05:03:45 34° SSW 05:05:44 69° ESE 05:10:33 10° NE visible
09 Jul ? 06:43:17 10° W 06:46:41 19° NW 06:50:09 10° N visible
10 Jul ? 03:48:04 14° SE 03:50:15 19° ESE 03:53:36 10° ENE visible
10 Jul ? 05:25:40 10° SW 05:30:15 52° NW 05:35:00 10° NNE visible
10 Jul ? 07:10:42 10° NW 07:11:50 11° NNW 07:12:59 10° NNW visible
11 Jul ? 04:09:58 10° S 04:14:24 45° ESE 04:18:59 10° NE visible
11 Jul ? 05:51:04 10° W 05:55:01 26° NW 05:59:05 10° NNE visible
12 Jul ? 04:34:06 10° SW 04:38:47 77° WNW 04:43:38 10° NNE visible
12 Jul ? 06:17:30 10° WNW 06:20:03 14° NW 06:22:38 10° N visible
13 Jul ? 03:19:04 10° S 03:23:06 30° ESE 03:27:15 10° NE visible
13 Jul ? 04:59:06 10° WSW 05:03:25 35° NW 05:07:54 10° NNE visible
